Home   Weather   Hallein   Past weeks

Flag for Austria Past Weather in Hallein, Salzburg, Austria — Yesterday and Last 2 Weeks

Now
16 °F

Light freezing rain. Low clouds.


Feels Like: 10 °F
Forecast: 10 / 27 °F
Wind: 3 mph from West

Location: Salzburg-Flughafen

Current Time: Jan 24, 2017 at 6:29:12 pm

Latest Report: Jan 24, 2017 at 5:50 pm


Visibility: 2 mi

Pressure: 30.33 "Hg

Humidity: 93%

Dew Point: 14 °F

Location of HalleinLocation

Past Weather in Hallein — Graph

°F

Hallein Temperature Yesterday

Maximum temperature yesterday: 21 °F (at 3:20 pm)
Minimum temperature yesterday: 1 °F (at 4:50 am)
Average temperature yesterday: 10 °F

High & Low Weather Summary for the Past Weeks

 TemperatureHumidityPressure
High41 °F (Jan 11, 10:50 pm)100% (Jan 9, 7:20 pm)30.51 "Hg (Jan 9, 7:20 pm)
Low1 °F (Jan 19, 6:20 am)41% (Jan 13, 12:20 pm)29.36 "Hg (Jan 13, 3:50 am)
Average21 °F85%30.14 "Hg
* Reported Jan 9 5:20 pm — Jan 24 5:20 pm, Hallein, Weather by CustomWeather, © 2017

Note: Actual official high and low records may vary slightly from our data, if they occured in-between our weather recording intervals... More about our weather records

Advertising

Hallein Weather History for the Previous 24 Hours

Scroll right to see more
 ConditionsComfort  
Time TempWeatherWind HumidityBarometerVisibility
5:20 pm
Tue, Jan 24
16 °FLight freezing rain. Low clouds.3 mph93%30.33 "Hg2 mi
4:20 pm16 °FLight freezing rain. Low clouds.2 mph93%30.30 "Hg1 mi
3:50 pm16 °FLight freezing rain. Low clouds.5 mph93%30.30 "Hg1 mi
3:20 pm18 °FLight mixture of precip. Low clouds.5 mph93%30.30 "Hg1 mi
2:50 pm18 °FLight mixture of precip. Low clouds.6 mph86%30.27 "Hg1 mi
2:20 pm18 °FLight mixture of precip. Low clouds.5 mph93%30.27 "Hg1 mi
1:50 pm18 °FLight mixture of precip. Low clouds.3 mph93%30.27 "Hg1 mi
1:20 pm18 °FLight freezing rain. Low clouds.3 mph93%30.27 "Hg1 mi
12:50 pm18 °FLight mixture of precip. Low clouds.3 mph93%30.27 "Hg1 mi
12:20 pm18 °FLight freezing rain. Low clouds.3 mph93%30.27 "Hg1 mi
11:50 am16 °FLight freezing rain. Ice fog.3 mph93%30.30 "Hg1 mi
11:20 am16 °FLight freezing rain. Ice fog.3 mph93%30.30 "Hg1 mi
10:50 am16 °FIce fog.3 mph93%30.30 "Hg1 mi
10:20 am16 °FIce fog.3 mph93%30.27 "Hg1 mi
9:50 am16 °FIce fog.3 mph93%30.27 "Hg0 mi
9:20 am14 °FIce fog.6 mph92%30.27 "Hg1 mi
8:50 am16 °FIce fog.5 mph93%30.27 "Hg1 mi
8:20 am14 °FIce fog.1 mph92%30.27 "Hg1 mi
7:50 am14 °FIce fog.1 mph92%30.24 "Hg1 mi
7:20 am14 °FIce fog.3 mph92%30.24 "Hg1 mi
6:50 am14 °FIce fog.5 mph92%30.24 "Hg0 mi
6:20 am14 °FIce fog.3 mph92%30.24 "Hg0 mi
5:50 am14 °FIce fog.2 mph92%30.21 "Hg0 mi
5:20 am14 °FIce fog.2 mph92%30.21 "Hg1 mi
4:50 am14 °FIce fog.2 mph92%30.21 "Hg0 mi
4:20 am12 °FIce fog.3 mph92%30.21 "Hg1 mi
3:50 am12 °FLight freezing rain. Passing clouds.3 mph92%30.21 "Hg1 mi
3:20 am12 °FPassing clouds.1 mph92%30.21 "Hg1 mi
2:50 am12 °FPassing clouds.1 mph92%30.21 "Hg1 mi
2:20 am12 °FPassing clouds.2 mph92%30.21 "Hg1 mi
1:50 am12 °FPassing clouds.2 mph92%30.21 "Hg1 mi
1:20 am10 °FIce fog.1 mph92%30.21 "Hg0 mi
12:50 am10 °FSnow flurries. Ice fog.2 mph85%30.21 "Hg0 mi
12:20 am9 °FIce fog.1 mph92%30.21 "Hg0 mi
11:50 pm
Mon, Jan 23
9 °FIce fog.1 mphN/A30.21 "Hg0 mi
11:20 pm7 °FIce fog.2 mph92%30.21 "Hg0 mi
10:50 pm7 °FFrigid.1 mph85%30.21 "Hg1 mi
10:20 pm5 °FFrigid.3 mph92%30.21 "Hg2 mi
9:50 pm7 °FSleet. Overcast.2 mph85%30.21 "Hg1 mi
9:20 pm9 °FLight freezing rain. Passing clouds.3 mph85%30.21 "Hg2 mi
8:50 pm9 °FLight freezing rain. Passing clouds.1 mph85%30.21 "Hg1 mi
8:20 pm9 °FLight freezing rain. Passing clouds.1 mph92%30.21 "Hg1 mi
7:50 pm9 °FLight freezing rain. Passing clouds.1 mph92%30.21 "Hg1 mi
7:20 pm9 °FLight freezing rain. Passing clouds.1 mph92%30.21 "Hg1 mi
6:50 pm12 °FLight freezing rain. Passing clouds.3 mph92%30.18 "Hg1 mi
6:20 pm12 °FLight freezing rain. Passing clouds.3 mph92%30.18 "Hg1 mi
Weather by CustomWeather, © 2017

See weather overviewHow to use our weather pages